sat.trackr.live / text

‹ back to catalog

STARLINK-36916

NORAD 68022 · 2026-040H

PAYLOAD ACTIVE UNKNOWN

§ Identity

Operator
Country
US
Launch date
2026-03-01
Launch site
AFWTR
Launch vehicle
Mass (kg)
RCS (m²)

Purposes: comms

External: N2YO · Heavens-Above · Gunter

§ Orbital elements

Epoch: 2026-05-24T20:32:59.231904Z

Period
93.91 min
Inclination
97.2839°
Eccentricity
0.0001769
Mean motion
15.33452080 rev/d
Perigee alt
464.3 km
Apogee alt
466.7 km
Semi-major
6,843.7 km
B*
7.0745e-4
RAAN
93.8406°
Arg perigee
97.2078°
Mean anomaly
262.9366°
Rev number
1,313

§ Raw data

STARLINK-369161 68022U 26040H   26144.85624111  .00022839  00000+0  70745-3 0  99942 68022  97.2839  93.8406 0001769  97.2078 262.9366 15.33452080 13137

JSON: /api/v1/satellites/68022 · /tle

For live sub-satellite position, see the globe view (requires WebGL).

§ Visibility from observer

Set your observer location to see the next 7 days of passes ≥ 10°. The values pass through the URL so the page stays shareable.

No JS? Fill the form by hand. The geolocation button needs JavaScript.